STV5 KBUR-KLAS

Flight info

Callsign STV5
Flight time 0h 39m
Altitude 29000
Route SLAPP2 MISEN RNDRZ4
Aircraft C750/M-SBDE3FGHRWXY/S

Departure

Time 2026-05-04 03:03
Airport Hollywood Burbank/Bob Hope Airport (KBUR)

Arrival

Time 2026-05-04 03:42
Airport Harry Reid International Airport (KLAS)
Time Latitude Longitude Altitude Speed Heading
2026-05-04 02:48 34.19980 -118.36616 734 ft 0 kts 178°
2026-05-04 02:56 34.19976 -118.36615 734 ft 2 kts 172°
2026-05-04 02:56 34.19926 -118.36584 734 ft 13 kts 145°
2026-05-04 02:56 34.19907 -118.36480 723 ft 14 kts 93°
2026-05-04 02:56 34.19895 -118.36359 728 ft 15 kts 98°
2026-05-04 02:57 34.19892 -118.36226 726 ft 17 kts 91°
2026-05-04 02:57 34.19891 -118.36054 726 ft 26 kts 90°
2026-05-04 02:57 34.19888 -118.35852 724 ft 17 kts 91°
2026-05-04 02:57 34.19943 -118.35804 726 ft 14 kts 346°
2026-05-04 02:58 34.20075 -118.35841 728 ft 25 kts 346°
2026-05-04 02:58 34.20265 -118.35895 728 ft 28 kts 347°
2026-05-04 02:58 34.20447 -118.35945 730 ft 26 kts 347°
2026-05-04 02:58 34.20613 -118.35991 735 ft 23 kts 347°
2026-05-04 02:59 34.20759 -118.36030 738 ft 21 kts 347°
2026-05-04 02:59 34.20893 -118.36066 738 ft 19 kts 347°
2026-05-04 02:59 34.21049 -118.36111 746 ft 25 kts 347°
2026-05-04 02:59 34.21147 -118.36124 745 ft 1 kts 31°
2026-05-04 03:00 34.21148 -118.36123 745 ft 0 kts 31°
2026-05-04 03:00 34.21170 -118.36106 742 ft 6 kts 39°
2026-05-04 03:00 34.21181 -118.36037 743 ft 9 kts 124°
2026-05-04 03:00 34.21158 -118.36025 743 ft 0 kts 167°
2026-05-04 03:02 34.20980 -118.35976 740 ft 81 kts 166°
2026-05-04 03:02 34.20138 -118.35738 911 ft 146 kts 165°
2026-05-04 03:02 34.19032 -118.35627 1217 ft 183 kts 188°
2026-05-04 03:03 34.18022 -118.36626 1860 ft 186 kts 241°
2026-05-04 03:03 34.17224 -118.37839 2818 ft 186 kts 225°
2026-05-04 03:03 34.16269 -118.38923 3652 ft 191 kts 221°
2026-05-04 03:03 34.15241 -118.40024 4284 ft 209 kts 220°
2026-05-04 03:04 34.14378 -118.41561 4196 ft 231 kts 250°
2026-05-04 03:04 34.14100 -118.43437 4243 ft 221 kts 262°
2026-05-04 03:04 34.14405 -118.45331 4578 ft 245 kts 300°
2026-05-04 03:04 34.15725 -118.46739 4780 ft 271 kts 335°
2026-05-04 03:05 34.17588 -118.47131 5444 ft 274 kts
2026-05-04 03:05 34.19403 -118.46522 6664 ft 274 kts 19°
2026-05-04 03:05 34.21208 -118.45627 7570 ft 285 kts 22°
2026-05-04 03:05 34.23046 -118.44651 8612 ft 293 kts 22°
2026-05-04 03:06 34.24941 -118.43678 9709 ft 299 kts 21°
2026-05-04 03:06 34.26900 -118.42698 10441 ft 314 kts 21°
2026-05-04 03:06 34.29003 -118.41637 10738 ft 342 kts 21°
2026-05-04 03:06 34.31281 -118.40470 10926 ft 369 kts 21°
2026-05-04 03:07 34.33672 -118.39246 11641 ft 374 kts 21°
2026-05-04 03:07 34.36094 -118.38020 12382 ft 380 kts 21°
2026-05-04 03:07 34.38548 -118.36767 13119 ft 385 kts 21°
2026-05-04 03:07 34.41091 -118.35638 13742 ft 393 kts 19°
2026-05-04 03:08 34.43654 -118.34444 14455 ft 396 kts 19°
2026-05-04 03:08 34.46204 -118.33126 15010 ft 404 kts 26°
2026-05-04 03:08 34.48485 -118.31097 15673 ft 409 kts 38°
2026-05-04 03:08 34.50675 -118.28888 16427 ft 412 kts 38°
2026-05-04 03:09 34.52887 -118.26677 17077 ft 418 kts 37°
2026-05-04 03:09 34.55168 -118.24404 17802 ft 424 kts 37°
2026-05-04 03:09 34.57455 -118.22111 18462 ft 430 kts 37°
2026-05-04 03:09 34.59774 -118.19781 19046 ft 436 kts 37°
2026-05-04 03:10 34.62126 -118.17413 19623 ft 444 kts 37°
2026-05-04 03:10 34.64274 -118.14655 20166 ft 455 kts 50°
2026-05-04 03:10 34.66019 -118.11413 20777 ft 464 kts 61°
2026-05-04 03:10 34.67279 -118.07773 21369 ft 471 kts 73°
2026-05-04 03:11 34.68040 -118.03882 21920 ft 477 kts 80°
2026-05-04 03:11 34.68701 -117.99907 22531 ft 484 kts 80°
2026-05-04 03:11 34.69250 -117.95910 23052 ft 489 kts 87°
2026-05-04 03:11 34.69478 -117.91770 23624 ft 494 kts 89°
2026-05-04 03:12 34.69730 -117.87586 24175 ft 499 kts 88°
2026-05-04 03:12 34.70011 -117.83363 24695 ft 503 kts 88°
2026-05-04 03:12 34.70272 -117.79102 25236 ft 508 kts 89°
2026-05-04 03:12 34.70495 -117.74806 25775 ft 512 kts 90°
2026-05-04 03:13 34.70652 -117.70468 26297 ft 516 kts 90°
2026-05-04 03:13 34.70830 -117.66092 26862 ft 521 kts 90°
2026-05-04 03:13 34.71014 -117.61672 27411 ft 525 kts 90°
2026-05-04 03:13 34.71185 -117.57225 27963 ft 530 kts 90°
2026-05-04 03:14 34.71412 -117.52732 28445 ft 536 kts 85°
2026-05-04 03:14 34.72135 -117.48264 28883 ft 543 kts 76°
2026-05-04 03:14 34.73277 -117.43830 28940 ft 556 kts 72°
2026-05-04 03:14 34.74501 -117.39317 28945 ft 569 kts 72°
2026-05-04 03:15 34.75735 -117.34694 28931 ft 580 kts 72°
2026-05-04 03:15 34.78204 -117.25287 28908 ft 586 kts 72°
2026-05-04 03:16 34.80720 -117.15831 28824 ft 587 kts 72°
2026-05-04 03:16 34.83199 -117.06362 28826 ft 587 kts 72°
2026-05-04 03:17 34.85690 -116.96895 28835 ft 587 kts 72°
2026-05-04 03:17 34.88166 -116.87401 28850 ft 588 kts 72°
2026-05-04 03:18 34.90644 -116.77903 28845 ft 589 kts 72°
2026-05-04 03:18 34.94164 -116.68932 28830 ft 587 kts 55°
2026-05-04 03:19 34.98791 -116.60749 28831 ft 587 kts 53°
2026-05-04 03:19 35.03392 -116.52547 28810 ft 584 kts 53°
2026-05-04 03:20 35.08007 -116.44370 28790 ft 585 kts 53°
2026-05-04 03:20 35.13072 -116.36712 28564 ft 562 kts 43°
2026-05-04 03:20 35.15677 -116.33349 28161 ft 530 kts 43°
2026-05-04 03:21 35.18147 -116.30160 27515 ft 519 kts 43°
2026-05-04 03:21 35.20626 -116.26962 26718 ft 518 kts 43°
2026-05-04 03:21 35.23082 -116.23752 25715 ft 515 kts 45°
2026-05-04 03:21 35.25445 -116.20489 24769 ft 509 kts 45°
2026-05-04 03:22 35.27791 -116.17276 23849 ft 503 kts 45°
2026-05-04 03:22 35.30118 -116.14114 22875 ft 497 kts 45°
2026-05-04 03:22 35.32392 -116.11001 21852 ft 484 kts 46°
2026-05-04 03:22 35.34588 -116.07967 20844 ft 468 kts 46°
2026-05-04 03:23 35.36718 -116.05034 19871 ft 453 kts 47°
2026-05-04 03:23 35.38813 -116.02165 18922 ft 439 kts 47°
2026-05-04 03:23 35.40792 -115.99447 18022 ft 427 kts 47°
2026-05-04 03:23 35.42739 -115.96759 16974 ft 416 kts 48°
2026-05-04 03:24 35.44640 -115.94138 16178 ft 403 kts 49°
2026-05-04 03:24 35.46423 -115.91684 16289 ft 371 kts 49°
2026-05-04 03:24 35.48159 -115.89283 16420 ft 381 kts 49°
2026-05-04 03:24 35.49923 -115.86840 16398 ft 387 kts 49°
2026-05-04 03:25 35.51678 -115.84416 16098 ft 371 kts 49°
2026-05-04 03:25 35.53375 -115.82074 15790 ft 365 kts 50°
2026-05-04 03:25 35.55021 -115.79795 15483 ft 347 kts 50°
2026-05-04 03:25 35.56596 -115.77611 15179 ft 337 kts 50°
2026-05-04 03:26 35.58123 -115.75494 15236 ft 331 kts 50°
2026-05-04 03:26 35.59669 -115.73348 15243 ft 336 kts 50°
2026-05-04 03:26 35.61245 -115.71219 15238 ft 339 kts 49°
2026-05-04 03:26 35.62844 -115.69093 15245 ft 339 kts 49°
2026-05-04 03:27 35.64436 -115.66950 15243 ft 339 kts 49°
2026-05-04 03:27 35.66016 -115.64797 15245 ft 339 kts 50°
2026-05-04 03:27 35.67599 -115.62657 15232 ft 334 kts 50°
2026-05-04 03:27 35.69177 -115.60528 15250 ft 338 kts 49°
2026-05-04 03:28 35.70754 -115.58393 15249 ft 337 kts 49°
2026-05-04 03:28 35.72337 -115.56266 15247 ft 336 kts 48°
2026-05-04 03:28 35.74215 -115.54549 15232 ft 337 kts 31°
2026-05-04 03:28 35.76284 -115.53138 15251 ft 340 kts 29°
2026-05-04 03:29 35.78352 -115.51734 15253 ft 339 kts 30°
2026-05-04 03:29 35.80404 -115.50283 15251 ft 340 kts 31°
2026-05-04 03:29 35.82420 -115.48848 15245 ft 339 kts 30°
2026-05-04 03:29 35.84481 -115.47406 15247 ft 342 kts 30°
2026-05-04 03:30 35.86537 -115.45973 15235 ft 341 kts 31°
2026-05-04 03:30 35.88600 -115.44524 15237 ft 338 kts 31°
2026-05-04 03:30 35.90654 -115.43077 15235 ft 341 kts 31°
2026-05-04 03:30 35.92720 -115.41627 14941 ft 342 kts 31°
2026-05-04 03:31 35.94794 -115.40188 14511 ft 339 kts 31°
2026-05-04 03:31 35.96839 -115.38766 14066 ft 336 kts 31°
2026-05-04 03:31 35.98837 -115.37331 13622 ft 329 kts 35°
2026-05-04 03:31 36.00425 -115.35375 13133 ft 320 kts 60°
2026-05-04 03:32 36.01281 -115.32902 12733 ft 310 kts 82°
2026-05-04 03:32 36.01388 -115.30300 12384 ft 301 kts 97°
2026-05-04 03:32 36.01255 -115.27719 12016 ft 302 kts 97°
2026-05-04 03:32 36.01162 -115.26006 11744 ft 302 kts 98°
2026-05-04 03:33 36.01033 -115.23422 11359 ft 301 kts 97°
2026-05-04 03:33 36.00912 -115.20870 10972 ft 292 kts 97°
2026-05-04 03:33 36.00792 -115.18412 10595 ft 282 kts 97°
2026-05-04 03:33 36.00676 -115.16089 10238 ft 261 kts 98°
2026-05-04 03:34 36.00565 -115.13904 9909 ft 251 kts 98°
2026-05-04 03:34 36.00453 -115.11766 9582 ft 249 kts 99°
2026-05-04 03:34 36.00344 -115.09643 9255 ft 247 kts 98°
2026-05-04 03:34 36.00237 -115.07523 8940 ft 248 kts 98°
2026-05-04 03:35 36.00128 -115.05388 8626 ft 250 kts 99°
2026-05-04 03:35 36.00018 -115.03244 8316 ft 250 kts 98°
2026-05-04 03:35 35.99927 -115.01103 7966 ft 250 kts 95°
2026-05-04 03:35 35.99950 -114.98951 7610 ft 250 kts 96°
2026-05-04 03:36 35.99906 -114.96816 7305 ft 248 kts 97°
2026-05-04 03:36 35.99879 -114.94693 6986 ft 244 kts 95°
2026-05-04 03:36 36.00320 -114.92691 6608 ft 247 kts 65°
2026-05-04 03:36 36.01476 -114.91125 6310 ft 251 kts 37°
2026-05-04 03:37 36.03030 -114.90204 5967 ft 248 kts 10°
2026-05-04 03:37 36.04712 -114.90339 5696 ft 244 kts 339°
2026-05-04 03:37 36.06179 -114.91350 5425 ft 241 kts 315°
2026-05-04 03:37 36.07132 -114.93008 5064 ft 233 kts 285°
2026-05-04 03:38 36.07396 -114.94886 4767 ft 213 kts 265°
2026-05-04 03:38 36.07375 -114.96672 4501 ft 204 kts 263°
2026-05-04 03:38 36.07374 -114.98364 4238 ft 189 kts 263°
2026-05-04 03:38 36.07376 -114.99972 3996 ft 187 kts 262°
2026-05-04 03:39 36.07376 -115.01529 3767 ft 169 kts 266°
2026-05-04 03:39 36.07379 -115.02875 3559 ft 146 kts 266°
2026-05-04 03:39 36.07373 -115.04084 3385 ft 141 kts 265°
2026-05-04 03:39 36.07371 -115.05307 3230 ft 141 kts 265°
2026-05-04 03:40 36.07370 -115.06534 3052 ft 146 kts 265°
2026-05-04 03:40 36.07370 -115.07730 2886 ft 137 kts 264°
2026-05-04 03:40 36.07369 -115.08882 2717 ft 132 kts 263°
2026-05-04 03:40 36.07371 -115.10013 2540 ft 131 kts 261°
2026-05-04 03:41 36.07369 -115.11097 2348 ft 122 kts 264°
2026-05-04 03:41 36.07367 -115.12167 2165 ft 127 kts 264°
2026-05-04 03:41 36.07367 -115.13235 2071 ft 114 kts 263°
2026-05-04 03:41 36.07364 -115.13940 2095 ft 63 kts 269°
2026-05-04 03:42 36.07380 -115.14351 2112 ft 33 kts 280°
2026-05-04 03:42 36.07424 -115.14499 2115 ft 0 kts 309°
2026-05-04 03:42 36.07442 -115.14528 2114 ft 0 kts 306°
2026-05-04 03:42 36.07447 -115.14537 2114 ft 5 kts 306°
2026-05-04 03:43 36.07496 -115.14615 2113 ft 18 kts 314°
2026-05-04 03:43 36.07609 -115.14663 2113 ft 17 kts 325°
2026-05-04 03:43 36.07645 -115.14847 2115 ft 29 kts 270°
2026-05-04 03:43 36.07643 -115.15103 2127 ft 27 kts 269°
2026-05-04 03:44 36.07641 -115.15326 2131 ft 28 kts 270°
2026-05-04 03:44 36.07640 -115.15609 2141 ft 37 kts 270°
2026-05-04 03:44 36.07639 -115.15913 2146 ft 34 kts 270°
2026-05-04 03:44 36.07639 -115.16173 2156 ft 28 kts 270°
2026-05-04 03:45 36.07638 -115.16405 2158 ft 25 kts 270°
2026-05-04 03:45 36.07638 -115.16629 2154 ft 26 kts 270°
2026-05-04 03:45 36.07637 -115.16783 2156 ft 11 kts 269°
2026-05-04 03:45 36.07639 -115.16885 2156 ft 16 kts 273°
2026-05-04 03:46 36.07643 -115.17054 2161 ft 15 kts 271°
2026-05-04 03:46 36.07689 -115.17121 2160 ft 10 kts
2026-05-04 03:46 36.07767 -115.17109 2158 ft 12 kts
2026-05-04 03:46 36.07842 -115.17101 2158 ft 10 kts 21°
2026-05-04 03:47 36.07909 -115.17066 2154 ft 10 kts 23°
2026-05-04 03:47 36.07983 -115.17019 2155 ft 17 kts 26°
2026-05-04 03:47 36.08100 -115.16948 2151 ft 20 kts 26°
2026-05-04 03:47 36.08222 -115.16955 2151 ft 18 kts 344°
2026-05-04 03:48 36.08289 -115.16930 2148 ft 0 kts 104°